Regional Weather Roundup
Issued by NWS

Home | Current Version | Previous Version | Graphics & Text | Print | Product List | Glossary On
Versions: 1 2 3 4 5 6 7 8 9 10 11 12 13 14 15 16 17 18 19 20 21 22 23 24 25 26 27
000
ASUS45 KBOI 201310
RWRID

IDAHO REGIONAL WEATHER ROUNDUP
NATIONAL WEATHER SERVICE BOISE ID
600 AM MST FRI JAN 20 2017

NOTE: "FAIR" INDICATES FEW OR NO CLOUDS BELOW 12000 FEET
WITH NO SIGNIFICANT WEATHER AND/OR OBSTRUCTIONS TO VISIBILITY

IDZ012-014-201400-
SOUTHWEST IDAHO


CITY           SKY/WX    TMP DP  RH WIND       PRES   REMARKS
BOISE          MOCLDY    37  29  72 SE14      29.50F WCI  28
CALDWELL       MOCLDY    25  24  96 CALM      29.50F FOG
MOUNTAIN HOME  DRIZZLE   32  32 100 E17       29.51F WCI  21
$$

IDZ016-017-201400-
SOUTHCENTRAL IDAHO


CITY           SKY/WX    TMP DP  RH WIND       PRES   REMARKS
BURLEY         MOCLDY    30  24  78 S9        29.55F WCI  22
JEROME         PTCLDY    29  27  92 E10       29.55F WCI  20
TWIN FALLS     MOCLDY    33  23  66 S10       29.54F WCI  25
$$

IDZ019>023-201400-
SOUTHEAST IDAHO


CITY           SKY/WX    TMP DP  RH WIND       PRES   REMARKS
IDAHO FALLS    CLOUDY    28  27  96 SE3       29.59F FOG
POCATELLO      CLOUDY    29  25  85 SW6       29.59F WCI  23
REXBURG        LGT SNOW  27  27 100 CALM      29.58F FOG
$$

IDZ006-010-011-018-031-032-201400-
CENTRAL IDAHO MOUNTAINS


CITY           SKY/WX    TMP DP  RH WIND       PRES   REMARKS
MCCALL         CLOUDY    27  23  85 E3        29.44S
HAILEY         CLOUDY    25  23  93 NW6       29.56F WCI  18
STANLEY          N/A     19  16  88 CALM      29.48F
SALMON         CLOUDY    19  19 100 E3        29.56S
CHALLIS        FOG       12  12 100 S3        29.53F VSB 1/2
$$

IDZ002-004-006-007-026-201400-
NORTHERN IDAHO


CITY           SKY/WX    TMP DP  RH WIND       PRES   REMARKS
LEWISTON       PTCLDY    33  30  88 E8        29.46F WCI  26
LOWELL           N/A     33  31  92 CALM      29.54F
COEUR D`ALENE  CLOUDY    31  31 100 NE9       29.46F WCI  23
MULLAN PASS    CLOUDY    26  22  84 SE6       29.40F FOG     WCI  19
$$




USA.gov is the U.S. government's official web portal to all federal, state and local government web resources and services.